Shannon, Ireland

6:07 AM GMT on December 16, 2017 (GMT +0000)
Shannon

Weather History for EINN - December, 2013

Change the Weather History Date:

Monday, December 9, 2013

  Actual Average Record
Temperature  
Mean Temperature 49 °F -  
Max Temperature 54 °F 48 °F 56 °F (2016)
Min Temperature 44 °F 38 °F 24 °F (2010)
Degree Days  
Heating Degree Days 16    
Moisture  
Dew Point 46 °F    
Average Humidity 86    
Maximum Humidity 94    
Minimum Humidity 71    
Precipitation  
Precipitation 0.00 in 0.13 in - ()
Sea Level Pressure  
Sea Level Pressure 30.15 in    
Wind  
Wind Speed 10 mph ()    
Max Wind Speed 21 mph    
Max Gust Speed -    
Visibility 6.7 miles    
Events      
Averages and records for this station are not official NWS values.
T = Trace of Precipitation, MM = Missing Value Source: Averaged Metar Reports

Daily Weather History Graph

Daily Weather History Graph

Search for Another Location

Airport or City:

Trip Planner

Search our weather history database for the weather conditions in past years. The results will help you decide how hot, cold, wet, or windy it might be!

Date:

Astronomy

Dec. 09, 2013 Rise Set
Actual Time 8:35 AM GMT 4:20 PM GMT
Civil Twilight 7:53 AM GMT 5:02 PM GMT
Nautical Twilight 7:09 AM GMT 5:46 PM GMT
Astronomical Twilight 6:27 AM GMT 6:28 PM GMT
Moon 12:35 PM GMT (12/9) No Moon Set
Length of Visible Light 9h 08m
Length of Day
7h 45m
Waxing Crescent, 48% of the Moon is Illuminated
Dec 9
Waxing Crescent
Dec 9
First Quarter
Dec 17
Full
Dec 25
Last Quarter
Jan 1
New

Hourly Weather History & Observations

Time (GMT) Temp. Windchill Dew Point Humidity Pressure Visibility Wind Dir Wind Speed Gust Speed Precip Events Conditions
12:00 AM 51 °F - 48 °F 84% 30.20 in 12 mi South 13.4 mph - -   Scattered Clouds
12:00 AM 50.0 °F - 48.2 °F 94% 30.18 in 6.2 mi South 12.7 mph - N/A   Partly Cloudy
12:30 AM 50.0 °F - 46.4 °F 87% 30.18 in 6.2 mi SSE 9.2 mph - N/A   Partly Cloudy
1:00 AM 48.2 °F - 46.4 °F 93% 30.18 in 6.2 mi South 8.1 mph - N/A   Partly Cloudy
1:30 AM 48.2 °F - 46.4 °F 93% 30.18 in 6.2 mi South 9.2 mph - N/A   Partly Cloudy
2:00 AM 48.2 °F - 46.4 °F 93% 30.18 in 6.2 mi South 5.8 mph - N/A   Partly Cloudy
2:30 AM 50.0 °F - 46.4 °F 87% 30.18 in 6.2 mi South 9.2 mph - N/A   Partly Cloudy
3:00 AM 48.2 °F - 46.4 °F 93% 30.18 in 6.2 mi South 8.1 mph - N/A   Partly Cloudy
3:30 AM 48.2 °F - 44.6 °F 87% 30.18 in 6.2 mi SSE 6.9 mph - N/A   Partly Cloudy
4:00 AM 46.4 °F 42.4 °F 44.6 °F 93% 30.18 in - South 8.1 mph - N/A   Clear
4:30 AM 46.4 °F 41.9 °F 44.6 °F 93% 30.18 in - South 9.2 mph - N/A   Clear
5:00 AM 46.4 °F 42.4 °F 44.6 °F 93% 30.18 in - SSE 8.1 mph - N/A   Clear
5:30 AM 48.2 °F - 44.6 °F 87% 30.18 in - SSE 9.2 mph - N/A   Clear
6:00 AM 46 °F - 44 °F 91% 30.19 in 12 mi SSE 8.9 mph - -   Scattered Clouds
6:00 AM 46.4 °F 41.9 °F 44.6 °F 93% 30.18 in 6.2 mi SSE 9.2 mph - N/A   Partly Cloudy
6:30 AM 44.6 °F 40.2 °F 42.8 °F 93% 30.18 in 6.2 mi SE 8.1 mph - N/A   Partly Cloudy
7:00 AM 46.4 °F 41.5 °F 44.6 °F 93% 30.18 in 6.2 mi SE 10.4 mph - N/A   Partly Cloudy
7:30 AM 46.4 °F 40.7 °F 44.6 °F 93% 30.18 in 6.2 mi SE 12.7 mph - N/A   Partly Cloudy
8:00 AM 46.4 °F 41.1 °F 44.6 °F 93% 30.18 in 6.2 mi SE 11.5 mph - N/A   Partly Cloudy
8:30 AM 46.4 °F 41.5 °F 44.6 °F 93% 30.18 in 6.2 mi SSE 10.4 mph - N/A   Partly Cloudy
9:00 AM 46.4 °F 41.5 °F 44.6 °F 93% 30.18 in 6.2 mi ESE 10.4 mph - N/A   Scattered Clouds
9:30 AM 46.4 °F 41.9 °F 44.6 °F 93% 30.18 in 6.2 mi SE 9.2 mph - N/A   Mostly Cloudy
10:00 AM 48.2 °F - 46.4 °F 93% 30.18 in 6.2 mi ESE 10.4 mph - N/A   Mostly Cloudy
10:30 AM 50.0 °F - 46.4 °F 87% 30.18 in 6.2 mi SE 11.5 mph - N/A   Mostly Cloudy
11:00 AM 51.8 °F - 48.2 °F 88% 30.18 in 6.2 mi SE 12.7 mph - N/A   Mostly Cloudy
11:30 AM 51.8 °F - 48.2 °F 88% 30.18 in 6.2 mi SE 12.7 mph - N/A   Scattered Clouds
12:00 PM 52 °F - 47 °F 77% 30.18 in 31 mi SSE 15.7 mph - -   Mostly Cloudy
12:00 PM 51.8 °F - 46.4 °F 82% 30.15 in 6.2 mi SSE 16.1 mph - N/A   Mostly Cloudy
12:30 PM 51.8 °F - 46.4 °F 82% 30.15 in 6.2 mi SSE 17.3 mph - N/A   Mostly Cloudy
1:00 PM 51.8 °F - 46.4 °F 82% 30.15 in 6.2 mi SE 9.2 mph - N/A   Mostly Cloudy
1:30 PM 51.8 °F - 46.4 °F 82% 30.15 in 6.2 mi SSE 10.4 mph - N/A   Mostly Cloudy
2:00 PM 53.6 °F - 46.4 °F 77% 30.12 in 6.2 mi SSE 12.7 mph - N/A   Mostly Cloudy
2:30 PM 53.6 °F - 46.4 °F 77% 30.12 in 6.2 mi SSE 15.0 mph - N/A   Mostly Cloudy
3:00 PM 53.6 °F - 44.6 °F 72% 30.12 in 6.2 mi SSE 17.3 mph - N/A   Partly Cloudy
3:30 PM 51.8 °F - 44.6 °F 76% 30.12 in 6.2 mi SSE 19.6 mph - N/A   Partly Cloudy
4:00 PM 51.8 °F - 42.8 °F 71% 30.12 in 6.2 mi SSE 20.7 mph - N/A   Partly Cloudy
4:30 PM 50.0 °F - 42.8 °F 76% 30.12 in 6.2 mi SE 15.0 mph - N/A   Partly Cloudy
5:00 PM 50.0 °F - 42.8 °F 76% 30.12 in 6.2 mi SSE 10.4 mph - N/A   Scattered Clouds
5:30 PM 50.0 °F - 44.6 °F 82% 30.12 in 6.2 mi ESE 10.4 mph - N/A   Mostly Cloudy
6:00 PM 50 °F - 45 °F 76% 30.12 in 19 mi SE 11.2 mph - -   Mostly Cloudy
6:00 PM 50.0 °F - 44.6 °F 82% 30.09 in 6.2 mi SE 10.4 mph - N/A   Mostly Cloudy
6:30 PM 50.0 °F - 46.4 °F 87% 30.09 in 6.2 mi SE 10.4 mph - N/A   Mostly Cloudy
7:00 PM 51.8 °F - 44.6 °F 76% 30.09 in 6.2 mi SE 8.1 mph - N/A   Mostly Cloudy
7:30 PM 50.0 °F - 46.4 °F 87% 30.09 in 6.2 mi SE 19.6 mph - N/A   Mostly Cloudy
8:00 PM 50.0 °F - 46.4 °F 87% 30.09 in 6.2 mi SE 13.8 mph - N/A   Mostly Cloudy
8:30 PM 50.0 °F - 46.4 °F 87% 30.09 in 6.2 mi SE 12.7 mph - N/A   Mostly Cloudy
9:00 PM 50.0 °F - 46.4 °F 87% 30.09 in 6.2 mi SE 12.7 mph - N/A   Mostly Cloudy
9:30 PM 50.0 °F - 46.4 °F 87% 30.09 in 6.2 mi SE 15.0 mph - N/A   Mostly Cloudy
10:00 PM 50.0 °F - 46.4 °F 87% 30.09 in 6.2 mi SE 10.4 mph - N/A   Overcast
10:30 PM 50.0 °F - 48.2 °F 94% 30.09 in 6.2 mi SE 13.8 mph - N/A   Mostly Cloudy
11:00 PM 51.8 °F - 48.2 °F 88% 30.09 in 6.2 mi SE 15.0 mph - N/A   Mostly Cloudy
11:30 PM 51.8 °F - 48.2 °F 88% 30.09 in 6.2 mi SE 11.5 mph - N/A   Mostly Cloudy